Time,TemperatureF,DewpointF,PressureIn,WindDirection,WindDirectionDegrees,WindSpeedMPH,WindSpeedGustMPH,Humidity,HourlyPrecipIn,Conditions,Clouds,dailyrainin,SoftwareType,DateUTC
2013-08-23 00:01:00,72.3,69.5,30.04,NE,49,0.0,0.0,91,0.00,,---,0.00,VWS V14.00,2013-08-23 05:01:00,
2013-08-23 00:06:00,72.3,69.5,30.04,NE,49,0.0,0.0,91,0.00,,---,0.00,VWS V14.00,2013-08-23 05:06:00,
2013-08-23 00:11:00,72.1,69.3,30.04,NE,49,0.0,0.0,91,0.00,,---,0.00,VWS V14.00,2013-08-23 05:11:00,
2013-08-23 00:16:00,72.1,69.3,30.04,NE,49,0.0,0.0,91,0.00,,---,0.00,VWS V14.00,2013-08-23 05:16:00,
2013-08-23 00:21:00,72.0,69.2,30.04,NE,49,0.0,0.0,91,0.00,,---,0.00,VWS V14.00,2013-08-23 05:21:00,
2013-08-23 00:26:00,71.8,69.3,30.04,NE,49,0.0,0.0,92,0.00,,---,0.00,VWS V14.00,2013-08-23 05:26:00,
2013-08-23 00:31:00,71.8,69.3,30.04,NE,49,0.0,0.0,92,0.00,,---,0.00,VWS V14.00,2013-08-23 05:31:00,
2013-08-23 00:36:00,71.6,69.2,30.04,NE,49,0.0,0.0,92,0.00,,---,0.00,VWS V14.00,2013-08-23 05:36:00,
2013-08-23 00:41:00,71.6,69.2,30.04,NE,49,0.0,0.0,92,0.00,,---,0.00,VWS V14.00,2013-08-23 05:41:00,
2013-08-23 00:46:00,71.5,69.1,30.04,NE,49,0.0,0.0,92,0.00,,---,0.00,VWS V14.00,2013-08-23 05:46:00,
2013-08-23 00:51:00,71.1,68.7,30.04,NE,49,0.0,0.0,92,0.00,,---,0.00,VWS V14.00,2013-08-23 05:51:00,
2013-08-23 00:56:00,70.9,68.5,30.04,NE,49,0.0,0.0,92,0.00,,---,0.00,VWS V14.00,2013-08-23 05:56:00,
2013-08-23 01:01:00,70.9,68.5,30.04,NE,49,0.0,0.0,92,0.00,,---,0.00,VWS V14.00,2013-08-23 06:01:00,
2013-08-23 01:06:00,70.8,68.4,30.04,NE,49,0.0,0.0,92,0.00,,---,0.00,VWS V14.00,2013-08-23 06:06:00,
2013-08-23 01:11:00,70.6,68.2,30.04,NE,49,0.0,0.0,92,0.00,,---,0.00,VWS V14.00,2013-08-23 06:11:00,
2013-08-23 01:16:00,70.4,68.0,30.04,NE,49,0.0,0.0,92,0.00,,---,0.00,VWS V14.00,2013-08-23 06:16:00,
2013-08-23 01:21:00,70.3,67.9,30.04,NE,49,0.0,0.0,92,0.00,,---,0.00,VWS V14.00,2013-08-23 06:21:00,
2013-08-23 01:26:00,70.3,67.9,30.04,NE,49,0.0,0.0,92,0.00,,---,0.00,VWS V14.00,2013-08-23 06:26:00,
2013-08-23 01:31:00,70.1,67.7,30.04,NE,49,0.0,0.0,92,0.00,,---,0.00,VWS V14.00,2013-08-23 06:31:00,
2013-08-23 01:36:00,70.1,68.0,30.03,NE,49,0.0,0.0,93,0.00,,---,0.00,VWS V14.00,2013-08-23 06:36:00,
2013-08-23 01:41:00,70.1,68.0,30.03,NE,49,0.0,0.0,93,0.00,,---,0.00,VWS V14.00,2013-08-23 06:41:00,
2013-08-23 01:46:00,70.1,68.0,30.03,NE,49,0.0,0.0,93,0.00,,---,0.00,VWS V14.00,2013-08-23 06:46:00,
2013-08-23 01:51:00,70.1,67.7,30.03,NE,49,0.0,0.0,92,0.00,,---,0.00,VWS V14.00,2013-08-23 06:51:00,
2013-08-23 01:56:00,69.9,67.8,30.03,NE,49,0.0,0.0,93,0.00,,---,0.00,VWS V14.00,2013-08-23 06:56:00,
2013-08-23 02:01:00,69.8,67.7,30.03,NE,49,0.0,0.0,93,0.00,,---,0.00,VWS V14.00,2013-08-23 07:01:00,
2013-08-23 02:06:00,69.6,67.5,30.02,NE,49,0.0,0.0,93,0.00,,---,0.00,VWS V14.00,2013-08-23 07:06:00,
2013-08-23 02:11:00,69.6,67.5,30.02,NE,49,0.0,0.0,93,0.00,,---,0.00,VWS V14.00,2013-08-23 07:11:00,
2013-08-23 02:16:00,69.4,67.3,30.03,NE,49,0.0,0.0,93,0.00,,---,0.00,VWS V14.00,2013-08-23 07:16:00,
2013-08-23 02:21:00,69.4,67.3,30.03,NE,49,0.0,0.0,93,0.00,,---,0.00,VWS V14.00,2013-08-23 07:21:00,
2013-08-23 02:26:00,69.3,67.2,30.03,NE,49,0.0,0.0,93,0.00,,---,0.00,VWS V14.00,2013-08-23 07:26:00,
2013-08-23 02:31:00,69.3,67.2,30.03,NE,49,0.0,0.0,93,0.00,,---,0.00,VWS V14.00,2013-08-23 07:31:00,
2013-08-23 02:36:00,69.1,67.0,30.03,NE,49,0.0,0.0,93,0.00,,---,0.00,VWS V14.00,2013-08-23 07:36:00,
2013-08-23 02:41:00,68.9,66.8,30.02,NE,49,0.0,0.0,93,0.00,,---,0.00,VWS V14.00,2013-08-23 07:41:00,
2013-08-23 02:46:00,68.9,66.8,30.02,NE,49,0.0,0.0,93,0.00,,---,0.00,VWS V14.00,2013-08-23 07:46:00,
2013-08-23 02:51:00,68.8,66.7,30.02,NE,49,0.0,0.0,93,0.00,,---,0.00,VWS V14.00,2013-08-23 07:51:00,
2013-08-23 02:56:00,68.9,66.8,30.02,NE,49,0.0,0.0,93,0.00,,---,0.00,VWS V14.00,2013-08-23 07:56:00,
2013-08-23 03:01:00,68.8,66.7,30.02,NE,49,0.0,0.0,93,0.00,,---,0.00,VWS V14.00,2013-08-23 08:01:00,
2013-08-23 03:06:00,68.6,66.5,30.02,NE,49,0.0,0.0,93,0.00,,---,0.00,VWS V14.00,2013-08-23 08:06:00,
2013-08-23 03:11:00,68.6,66.8,30.02,NE,49,0.0,0.0,94,0.00,,---,0.00,VWS V14.00,2013-08-23 08:11:00,
2013-08-23 03:16:00,68.6,66.8,30.02,NE,49,0.0,0.0,94,0.00,,---,0.00,VWS V14.00,2013-08-23 08:16:00,
2013-08-23 03:21:00,68.6,66.8,30.02,NE,49,0.0,0.0,94,0.00,,---,0.00,VWS V14.00,2013-08-23 08:21:00,
2013-08-23 03:26:00,68.6,66.8,30.02,NE,49,0.0,0.0,94,0.00,,---,0.00,VWS V14.00,2013-08-23 08:26:00,
2013-08-23 03:31:00,68.6,66.8,30.02,NE,49,0.0,0.0,94,0.00,,---,0.00,VWS V14.00,2013-08-23 08:31:00,
2013-08-23 03:36:00,68.4,66.6,30.03,NE,49,0.0,0.0,94,0.00,,---,0.00,VWS V14.00,2013-08-23 08:36:00,
2013-08-23 03:41:00,68.3,66.5,30.03,NE,49,0.0,0.0,94,0.00,,---,0.00,VWS V14.00,2013-08-23 08:41:00,
2013-08-23 03:46:00,68.3,66.5,30.03,NE,49,0.0,0.0,94,0.00,,---,0.00,VWS V14.00,2013-08-23 08:46:00,
2013-08-23 03:51:00,68.1,66.3,30.03,NE,49,0.0,0.0,94,0.00,,---,0.00,VWS V14.00,2013-08-23 08:51:00,
2013-08-23 03:56:00,68.1,66.3,30.03,NE,49,0.0,0.0,94,0.00,,---,0.00,VWS V14.00,2013-08-23 08:56:00,
2013-08-23 04:01:00,67.9,66.1,30.03,NE,49,0.0,0.0,94,0.00,,---,0.00,VWS V14.00,2013-08-23 09:01:00,
2013-08-23 04:06:00,67.8,66.0,30.03,NE,49,0.0,0.0,94,0.00,,---,0.00,VWS V14.00,2013-08-23 09:06:00,
2013-08-23 04:11:00,67.8,66.0,30.03,NE,49,0.0,0.0,94,0.00,,---,0.00,VWS V14.00,2013-08-23 09:11:00,
2013-08-23 04:16:00,67.8,66.0,30.03,NE,49,0.0,0.0,94,0.00,,---,0.00,VWS V14.00,2013-08-23 09:16:00,
2013-08-23 04:21:00,67.8,66.0,30.03,NE,49,0.0,0.0,94,0.00,,---,0.00,VWS V14.00,2013-08-23 09:21:00,
2013-08-23 04:26:00,67.6,65.8,30.03,NE,49,0.0,0.0,94,0.00,,---,0.00,VWS V14.00,2013-08-23 09:26:00,
2013-08-23 04:31:00,67.4,65.6,30.03,NE,49,0.0,0.0,94,0.00,,---,0.00,VWS V14.00,2013-08-23 09:31:00,
2013-08-23 04:36:00,67.1,65.3,30.03,NE,49,0.0,0.0,94,0.00,,---,0.00,VWS V14.00,2013-08-23 09:36:00,
2013-08-23 04:40:00,67.1,65.3,30.03,NE,49,0.0,0.0,94,0.00,,---,0.00,VWS V14.00,2013-08-23 09:40:00,
2013-08-23 04:45:00,67.1,65.3,30.03,NE,49,0.0,0.0,94,0.00,,---,0.00,VWS V14.00,2013-08-23 09:45:00,
2013-08-23 04:50:00,67.1,65.6,30.03,NE,49,0.0,0.0,95,0.00,,---,0.00,VWS V14.00,2013-08-23 09:50:00,
2013-08-23 04:55:00,67.1,65.6,30.03,NE,49,0.0,0.0,95,0.00,,---,0.00,VWS V14.00,2013-08-23 09:55:00,
2013-08-23 05:00:00,67.3,65.8,30.03,NE,49,0.0,0.0,95,0.00,,---,0.00,VWS V14.00,2013-08-23 10:00:00,
2013-08-23 05:05:00,67.3,65.8,30.03,NE,49,0.0,0.0,95,0.00,,---,0.00,VWS V14.00,2013-08-23 10:05:00,
2013-08-23 05:10:00,67.3,65.8,30.04,NE,49,0.0,0.0,95,0.00,,---,0.00,VWS V14.00,2013-08-23 10:10:00,
2013-08-23 05:15:00,67.3,65.8,30.04,NE,49,0.0,0.0,95,0.00,,---,0.00,VWS V14.00,2013-08-23 10:15:00,
2013-08-23 05:20:00,67.3,65.5,30.05,NE,49,0.0,0.0,94,0.00,,---,0.00,VWS V14.00,2013-08-23 10:20:00,
2013-08-23 05:25:00,67.1,65.3,30.05,NE,49,0.0,0.0,94,0.00,,---,0.00,VWS V14.00,2013-08-23 10:25:00,
2013-08-23 05:30:00,67.1,65.6,30.05,NE,49,0.0,0.0,95,0.00,,---,0.00,VWS V14.00,2013-08-23 10:30:00,
2013-08-23 05:35:00,67.1,65.3,30.05,NE,49,0.0,0.0,94,0.00,,---,0.00,VWS V14.00,2013-08-23 10:35:00,
2013-08-23 05:40:00,66.8,65.0,30.05,NE,49,0.0,0.0,94,0.00,,---,0.00,VWS V14.00,2013-08-23 10:40:00,
2013-08-23 05:45:00,66.6,64.8,30.05,NE,49,0.0,0.0,94,0.00,,---,0.00,VWS V14.00,2013-08-23 10:45:00,
2013-08-23 05:50:00,66.6,64.8,30.05,NE,49,0.0,0.0,94,0.00,,---,0.00,VWS V14.00,2013-08-23 10:50:00,
2013-08-23 05:55:00,66.4,64.6,30.06,NE,49,0.0,0.0,94,0.00,,---,0.00,VWS V14.00,2013-08-23 10:55:00,
2013-08-23 06:00:00,66.4,64.9,30.05,NE,49,0.0,0.0,95,0.00,,---,0.00,VWS V14.00,2013-08-23 11:00:00,
2013-08-23 06:05:00,66.4,64.9,30.06,NE,49,0.0,0.0,95,0.00,,---,0.00,VWS V14.00,2013-08-23 11:05:00,
2013-08-23 06:10:00,66.4,64.9,30.06,NE,49,0.0,0.0,95,0.00,,---,0.00,VWS V14.00,2013-08-23 11:10:00,
2013-08-23 06:15:00,66.4,64.9,30.06,NE,49,0.0,0.0,95,0.00,,---,0.00,VWS V14.00,2013-08-23 11:15:00,
2013-08-23 06:20:00,66.4,64.9,30.06,NE,49,0.0,0.0,95,0.00,,---,0.00,VWS V14.00,2013-08-23 11:20:00,
2013-08-23 06:25:00,66.3,64.8,30.06,NE,49,0.0,0.0,95,0.00,,---,0.00,VWS V14.00,2013-08-23 11:25:00,
2013-08-23 06:30:00,66.3,64.8,30.06,NE,49,0.0,0.0,95,0.00,,---,0.00,VWS V14.00,2013-08-23 11:30:00,
2013-08-23 06:35:00,66.3,64.8,30.07,NE,49,0.0,0.0,95,0.00,,---,0.00,VWS V14.00,2013-08-23 11:35:00,
2013-08-23 06:40:00,66.3,64.8,30.07,NE,49,0.0,0.0,95,0.01,,---,0.01,VWS V14.00,2013-08-23 11:40:00,
2013-08-23 06:45:00,66.4,64.9,30.07,NE,49,0.0,0.0,95,0.01,,---,0.01,VWS V14.00,2013-08-23 11:45:00,
2013-08-23 06:50:00,66.4,64.9,30.07,NE,49,0.0,0.0,95,0.01,,---,0.01,VWS V14.00,2013-08-23 11:50:00,
2013-08-23 06:55:00,66.3,64.8,30.07,NE,49,0.0,0.0,95,0.01,,---,0.01,VWS V14.00,2013-08-23 11:55:00,
2013-08-23 07:00:00,66.3,64.8,30.07,NE,49,0.0,0.0,95,0.01,,---,0.01,VWS V14.00,2013-08-23 12:00:00,
2013-08-23 07:05:00,66.3,64.8,30.07,NE,49,0.0,0.0,95,0.01,,---,0.01,VWS V14.00,2013-08-23 12:05:00,
2013-08-23 07:10:00,66.3,64.8,30.07,NE,49,0.0,0.0,95,0.01,,---,0.01,VWS V14.00,2013-08-23 12:10:00,
2013-08-23 07:15:00,66.3,64.8,30.07,NE,49,0.0,0.0,95,0.01,,---,0.01,VWS V14.00,2013-08-23 12:15:00,
2013-08-23 07:20:00,66.3,64.8,30.07,NE,49,0.0,0.0,95,0.01,,---,0.01,VWS V14.00,2013-08-23 12:20:00,
2013-08-23 07:25:00,66.4,64.9,30.08,NE,49,0.0,0.0,95,0.01,,---,0.01,VWS V14.00,2013-08-23 12:25:00,
2013-08-23 07:30:00,66.3,64.8,30.08,NE,49,0.0,0.0,95,0.01,,---,0.01,VWS V14.00,2013-08-23 12:30:00,
2013-08-23 07:35:00,66.3,64.8,30.08,NE,49,0.0,1.0,95,0.01,,---,0.01,VWS V14.00,2013-08-23 12:35:00,
2013-08-23 07:40:00,66.4,64.9,30.08,NE,49,0.0,0.0,95,0.01,,---,0.01,VWS V14.00,2013-08-23 12:40:00,
2013-08-23 07:45:00,66.8,65.3,30.08,NE,49,0.0,0.0,95,0.00,,---,0.01,VWS V14.00,2013-08-23 12:45:00,
2013-08-23 07:50:00,66.9,65.4,30.08,NE,49,0.0,0.0,95,0.00,,---,0.01,VWS V14.00,2013-08-23 12:50:00,
2013-08-23 07:55:00,67.3,65.8,30.08,NE,49,0.0,0.0,95,0.00,,---,0.01,VWS V14.00,2013-08-23 12:55:00,
2013-08-23 08:00:00,67.6,66.1,30.08,NE,49,0.0,0.0,95,0.00,,---,0.01,VWS V14.00,2013-08-23 13:00:00,
2013-08-23 08:05:00,67.8,66.0,30.09,NE,49,0.0,0.0,94,0.00,,---,0.01,VWS V14.00,2013-08-23 13:05:00,
2013-08-23 08:10:00,68.1,66.3,30.09,NE,49,0.0,0.0,94,0.00,,---,0.01,VWS V14.00,2013-08-23 13:10:00,
2013-08-23 08:15:00,68.3,66.2,30.09,NE,49,0.0,0.0,93,0.00,,---,0.01,VWS V14.00,2013-08-23 13:15:00,
2013-08-23 08:20:00,68.6,66.5,30.09,NE,49,0.0,0.0,93,0.00,,---,0.01,VWS V14.00,2013-08-23 13:20:00,
2013-08-23 08:25:00,68.9,66.8,30.09,NE,49,0.0,0.0,93,0.00,,---,0.01,VWS V14.00,2013-08-23 13:25:00,
2013-08-23 08:30:00,69.3,66.9,30.09,NE,49,0.0,0.0,92,0.00,,---,0.01,VWS V14.00,2013-08-23 13:30:00,
2013-08-23 08:35:00,69.6,67.2,30.08,NE,49,0.0,0.0,92,0.00,,---,0.01,VWS V14.00,2013-08-23 13:35:00,
2013-08-23 08:40:00,69.9,67.5,30.08,NE,49,0.0,0.0,92,0.00,,---,0.01,VWS V14.00,2013-08-23 13:40:00,
2013-08-23 08:45:00,70.4,67.3,30.08,NE,49,0.0,0.0,90,0.00,,---,0.01,VWS V14.00,2013-08-23 13:45:00,
2013-08-23 08:50:00,70.9,67.8,30.08,NE,49,0.0,0.0,90,0.00,,---,0.01,VWS V14.00,2013-08-23 13:50:00,
2013-08-23 08:55:00,71.5,68.1,30.08,NE,49,0.0,0.0,89,0.00,,---,0.01,VWS V14.00,2013-08-23 13:55:00,
2013-08-23 09:00:00,71.8,68.4,30.08,NE,49,0.0,0.0,89,0.00,,---,0.01,VWS V14.00,2013-08-23 14:00:00,
2013-08-23 09:05:00,72.3,68.9,30.08,NE,49,0.0,0.0,89,0.00,,---,0.01,VWS V14.00,2013-08-23 14:05:00,
2013-08-23 09:10:00,72.7,68.9,30.08,NE,49,0.0,0.0,88,0.00,,---,0.01,VWS V14.00,2013-08-23 14:10:00,
2013-08-23 09:15:00,73.3,69.2,30.08,NE,49,0.0,0.0,87,0.00,,---,0.01,VWS V14.00,2013-08-23 14:15:00,
2013-08-23 09:20:00,73.7,69.3,30.08,NE,49,0.0,0.0,86,0.00,,---,0.01,VWS V14.00,2013-08-23 14:20:00,
2013-08-23 09:25:00,74.4,69.6,30.08,NE,49,0.0,0.0,85,0.00,,---,0.01,VWS V14.00,2013-08-23 14:25:00,
2013-08-23 09:30:00,75.4,70.6,30.08,NE,49,0.0,0.0,85,0.00,,---,0.01,VWS V14.00,2013-08-23 14:30:00,
2013-08-23 09:35:00,76.3,70.8,30.08,NE,49,0.0,0.0,83,0.00,,---,0.01,VWS V14.00,2013-08-23 14:35:00,
2013-08-23 09:40:00,77.0,71.1,30.08,NE,49,0.0,0.0,82,0.00,,---,0.01,VWS V14.00,2013-08-23 14:40:00,
2013-08-23 09:45:00,77.7,71.4,30.07,NE,49,0.0,0.0,81,0.00,,---,0.01,VWS V14.00,2013-08-23 14:45:00,
2013-08-23 09:50:00,78.1,71.4,30.07,NE,49,0.0,0.0,80,0.00,,---,0.01,VWS V14.00,2013-08-23 14:50:00,
2013-08-23 09:55:00,78.1,71.1,30.08,NE,49,0.0,0.0,79,0.00,,---,0.01,VWS V14.00,2013-08-23 14:55:00,
2013-08-23 10:00:00,78.3,71.3,30.08,NE,49,0.0,0.0,79,0.00,,---,0.01,VWS V14.00,2013-08-23 15:00:00,
2013-08-23 10:05:00,78.6,71.6,30.08,NE,49,0.0,0.0,79,0.00,,---,0.01,VWS V14.00,2013-08-23 15:05:00,
2013-08-23 10:10:00,78.8,71.7,30.08,NE,49,0.0,0.0,79,0.00,,---,0.01,VWS V14.00,2013-08-23 15:10:00,
2013-08-23 10:15:00,79.2,71.8,30.08,NE,49,0.0,0.0,78,0.00,,---,0.01,VWS V14.00,2013-08-23 15:15:00,
2013-08-23 10:20:00,79.8,72.3,30.08,NE,49,0.0,0.0,78,0.00,,---,0.01,VWS V14.00,2013-08-23 15:20:00,
2013-08-23 10:25:00,80.3,72.1,30.08,NE,49,0.0,0.0,76,0.00,,---,0.01,VWS V14.00,2013-08-23 15:25:00,
2013-08-23 10:30:00,80.9,72.6,30.07,NE,49,0.0,0.0,76,0.00,,---,0.01,VWS V14.00,2013-08-23 15:30:00,
2013-08-23 10:35:00,81.4,72.3,30.08,NE,49,0.0,0.0,74,0.00,,---,0.01,VWS V14.00,2013-08-23 15:35:00,
2013-08-23 10:40:00,81.8,72.3,30.07,NE,49,0.0,0.0,73,0.00,,---,0.01,VWS V14.00,2013-08-23 15:40:00,
2013-08-23 10:45:00,82.4,72.1,30.07,NE,49,0.0,0.0,71,0.00,,---,0.01,VWS V14.00,2013-08-23 15:45:00,
2013-08-23 10:50:00,82.6,71.8,30.07,NE,49,0.0,0.0,70,0.00,,---,0.01,VWS V14.00,2013-08-23 15:50:00,
2013-08-23 10:55:00,82.8,70.7,30.07,NE,49,0.0,0.0,67,0.00,,---,0.01,VWS V14.00,2013-08-23 15:55:00,
2013-08-23 11:00:00,83.4,71.3,30.07,NE,49,0.0,0.0,67,0.00,,---,0.01,VWS V14.00,2013-08-23 16:00:00,
2013-08-23 11:05:00,84.3,72.2,30.07,NE,49,0.0,0.0,67,0.00,,---,0.01,VWS V14.00,2013-08-23 16:05:00,
2013-08-23 11:10:00,84.7,71.6,30.07,NE,49,0.0,0.0,65,0.00,,---,0.01,VWS V14.00,2013-08-23 16:10:00,
2013-08-23 11:15:00,85.3,72.2,30.07,NE,49,0.0,0.0,65,0.00,,---,0.01,VWS V14.00,2013-08-23 16:15:00,
2013-08-23 11:20:00,85.7,71.2,30.07,NE,49,0.0,0.0,62,0.00,,---,0.01,VWS V14.00,2013-08-23 16:20:00,
2013-08-23 11:25:00,86.3,71.3,30.07,NE,49,0.0,0.0,61,0.00,,---,0.01,VWS V14.00,2013-08-23 16:25:00,
2013-08-23 11:30:00,86.3,70.3,30.07,NE,49,0.0,0.0,59,0.00,,---,0.01,VWS V14.00,2013-08-23 16:30:00,
2013-08-23 11:35:00,87.2,69.1,30.07,NE,49,0.0,0.0,55,0.00,,---,0.01,VWS V14.00,2013-08-23 16:35:00,
2013-08-23 11:40:00,87.8,69.1,30.07,NE,49,0.0,0.0,54,0.00,,---,0.01,VWS V14.00,2013-08-23 16:40:00,
2013-08-23 11:45:00,88.2,70.0,30.06,NE,49,0.0,0.0,55,0.00,,---,0.01,VWS V14.00,2013-08-23 16:45:00,
2013-08-23 11:50:00,88.4,69.1,30.06,NE,49,0.0,0.0,53,0.00,,---,0.01,VWS V14.00,2013-08-23 16:50:00,
2013-08-23 11:55:00,88.6,68.7,30.06,NE,49,0.0,0.0,52,0.00,,---,0.01,VWS V14.00,2013-08-23 16:55:00,
2013-08-23 12:00:00,88.8,67.8,30.06,NE,49,0.0,0.0,50,0.00,,---,0.01,VWS V14.00,2013-08-23 17:00:00,
2013-08-23 12:05:00,89.5,67.2,30.06,NE,49,0.0,0.0,48,0.00,,---,0.01,VWS V14.00,2013-08-23 17:05:00,
2013-08-23 12:10:00,90.1,67.2,30.05,NE,49,0.0,0.0,47,0.00,,---,0.01,VWS V14.00,2013-08-23 17:10:00,
2013-08-23 12:15:00,90.5,66.9,30.05,NE,49,0.0,0.0,46,0.00,,---,0.01,VWS V14.00,2013-08-23 17:15:00,
2013-08-23 12:20:00,90.7,67.7,30.05,NE,49,0.0,0.0,47,0.00,,---,0.01,VWS V14.00,2013-08-23 17:20:00,
2013-08-23 12:24:00,90.5,68.2,30.05,NE,49,0.0,0.0,48,0.00,,---,0.01,VWS V14.00,2013-08-23 17:24:00,
2013-08-23 12:29:00,89.7,67.4,30.05,NE,49,0.0,0.0,48,0.00,,---,0.01,VWS V14.00,2013-08-23 17:29:00,
2013-08-23 12:34:00,88.6,68.2,30.04,NE,49,0.0,0.0,51,0.00,,---,0.01,VWS V14.00,2013-08-23 17:34:00,
2013-08-23 12:39:00,87.2,68.0,30.05,NE,49,0.0,0.0,53,0.00,,---,0.01,VWS V14.00,2013-08-23 17:39:00,
2013-08-23 12:44:00,87.0,66.7,30.05,NE,49,0.0,0.0,51,0.00,,---,0.01,VWS V14.00,2013-08-23 17:44:00,
2013-08-23 12:49:00,86.7,67.0,30.05,NE,49,0.0,0.0,52,0.00,,---,0.01,VWS V14.00,2013-08-23 17:49:00,
2013-08-23 12:54:00,87.2,66.9,30.04,NE,49,0.0,0.0,51,0.00,,---,0.01,VWS V14.00,2013-08-23 17:54:00,
2013-08-23 12:59:00,87.4,67.1,30.04,NE,49,0.0,0.0,51,0.00,,---,0.01,VWS V14.00,2013-08-23 17:59:00,
2013-08-23 13:04:00,87.4,67.1,30.04,NE,49,0.0,0.0,51,0.00,,---,0.01,VWS V14.00,2013-08-23 18:04:00,
2013-08-23 13:09:00,87.6,67.2,30.04,NE,49,0.0,0.0,51,0.00,,---,0.01,VWS V14.00,2013-08-23 18:09:00,
2013-08-23 13:14:00,88.0,67.1,30.04,NE,49,0.0,0.0,50,0.00,,---,0.01,VWS V14.00,2013-08-23 18:14:00,
2013-08-23 13:19:00,88.2,66.7,30.04,NE,49,0.0,0.0,49,0.00,,---,0.01,VWS V14.00,2013-08-23 18:19:00,
2013-08-23 13:24:00,88.8,67.8,30.04,NE,49,0.0,0.0,50,0.00,,---,0.01,VWS V14.00,2013-08-23 18:24:00,
2013-08-23 13:29:00,89.0,67.4,30.04,NE,49,0.0,0.0,49,0.00,,---,0.01,VWS V14.00,2013-08-23 18:29:00,
2013-08-23 13:34:00,88.6,65.8,30.04,NE,49,0.0,0.0,47,0.00,,---,0.01,VWS V14.00,2013-08-23 18:34:00,
2013-08-23 13:39:00,88.2,66.7,30.04,NE,49,0.0,0.0,49,0.00,,---,0.01,VWS V14.00,2013-08-23 18:39:00,
2013-08-23 13:44:00,87.8,65.7,30.04,NE,49,0.0,0.0,48,0.00,,---,0.01,VWS V14.00,2013-08-23 18:44:00,
2013-08-23 13:49:00,87.8,65.7,30.03,NE,49,0.0,0.0,48,0.00,,---,0.01,VWS V14.00,2013-08-23 18:49:00,
2013-08-23 13:54:00,88.0,65.9,30.03,NE,49,0.0,0.0,48,0.00,,---,0.01,VWS V14.00,2013-08-23 18:54:00,
2013-08-23 13:59:00,88.4,65.6,30.03,NE,49,0.0,0.0,47,0.00,,---,0.01,VWS V14.00,2013-08-23 18:59:00,
2013-08-23 14:04:00,88.2,62.9,30.03,NE,49,0.0,0.0,43,0.00,,---,0.01,VWS V14.00,2013-08-23 19:04:00,
2013-08-23 14:09:00,88.2,63.6,30.03,NE,49,0.0,0.0,44,0.00,,---,0.01,VWS V14.00,2013-08-23 19:09:00,
2013-08-23 14:14:00,88.8,63.4,30.02,NE,49,0.0,0.0,43,0.00,,---,0.01,VWS V14.00,2013-08-23 19:14:00,
2013-08-23 14:19:00,88.8,62.8,30.03,NE,49,0.0,0.0,42,0.00,,---,0.01,VWS V14.00,2013-08-23 19:19:00,
2013-08-23 14:24:00,88.6,61.9,30.02,NE,49,0.0,0.0,41,0.00,,---,0.01,VWS V14.00,2013-08-23 19:24:00,
2013-08-23 14:29:00,88.4,62.4,30.03,NE,49,0.0,0.0,42,0.00,,---,0.01,VWS V14.00,2013-08-23 19:29:00,
2013-08-23 14:34:00,88.8,63.4,30.02,NE,49,0.0,0.0,43,0.00,,---,0.01,VWS V14.00,2013-08-23 19:34:00,
2013-08-23 14:39:00,89.3,64.6,30.01,NE,49,0.0,0.0,44,0.00,,---,0.01,VWS V14.00,2013-08-23 19:39:00,
2013-08-23 14:44:00,88.8,64.7,30.01,NE,49,0.0,1.0,45,0.00,,---,0.01,VWS V14.00,2013-08-23 19:44:00,
2013-08-23 14:49:00,88.8,64.7,30.01,NE,49,0.0,0.0,45,0.00,,---,0.01,VWS V14.00,2013-08-23 19:49:00,
2013-08-23 14:54:00,89.7,64.9,30.01,NE,49,0.0,0.0,44,0.00,,---,0.01,VWS V14.00,2013-08-23 19:54:00,
2013-08-23 14:59:00,89.7,64.2,30.01,NE,49,0.0,0.0,43,0.00,,---,0.01,VWS V14.00,2013-08-23 19:59:00,
2013-08-23 15:04:00,89.3,64.6,30.01,NE,49,0.0,0.0,44,0.00,,---,0.01,VWS V14.00,2013-08-23 20:04:00,
2013-08-23 15:09:00,89.5,64.1,30.01,NE,49,0.0,0.0,43,0.00,,---,0.01,VWS V14.00,2013-08-23 20:09:00,
2013-08-23 15:14:00,89.9,63.8,30.01,NE,49,0.0,0.0,42,0.00,,---,0.01,VWS V14.00,2013-08-23 20:14:00,
2013-08-23 15:19:00,90.3,65.4,30.00,NE,49,0.0,0.0,44,0.00,,---,0.01,VWS V14.00,2013-08-23 20:19:00,
2013-08-23 15:24:00,90.1,63.2,30.00,NE,49,0.0,0.0,41,0.00,,---,0.01,VWS V14.00,2013-08-23 20:24:00,
2013-08-23 15:29:00,89.7,64.2,30.00,NE,49,0.0,0.0,43,0.00,,---,0.01,VWS V14.00,2013-08-23 20:29:00,
2013-08-23 15:34:00,89.7,63.6,30.00,NE,49,0.0,0.0,42,0.00,,---,0.01,VWS V14.00,2013-08-23 20:34:00,
2013-08-23 15:39:00,89.9,63.8,29.99,NE,49,0.0,0.0,42,0.00,,---,0.01,VWS V14.00,2013-08-23 20:39:00,
2013-08-23 15:44:00,90.7,64.5,29.99,NE,49,0.0,0.0,42,0.00,,---,0.01,VWS V14.00,2013-08-23 20:44:00,
2013-08-23 15:49:00,90.1,63.9,29.99,NE,49,0.0,0.0,42,0.00,,---,0.01,VWS V14.00,2013-08-23 20:49:00,
2013-08-23 15:54:00,89.0,63.6,30.00,NE,49,0.0,0.0,43,0.00,,---,0.01,VWS V14.00,2013-08-23 20:54:00,
2013-08-23 15:59:00,88.8,65.4,30.00,NE,49,0.0,0.0,46,0.00,,---,0.01,VWS V14.00,2013-08-23 20:59:00,
2013-08-23 16:04:00,89.3,65.8,30.00,NE,49,0.0,0.0,46,0.00,,---,0.01,VWS V14.00,2013-08-23 21:04:00,
2013-08-23 16:09:00,89.7,66.8,29.99,NE,49,0.0,0.0,47,0.00,,---,0.01,VWS V14.00,2013-08-23 21:09:00,
2013-08-23 16:14:00,89.5,65.4,29.99,NNE,20,0.0,0.0,45,0.00,,---,0.01,VWS V14.00,2013-08-23 21:14:00,
2013-08-23 16:19:00,88.8,64.7,29.99,NE,36,0.0,0.0,45,0.00,,---,0.01,VWS V14.00,2013-08-23 21:19:00,
2013-08-23 16:24:00,88.6,66.4,30.00,NE,54,0.0,0.0,48,0.00,,---,0.01,VWS V14.00,2013-08-23 21:24:00,
2013-08-23 16:29:00,89.0,67.4,29.99,NE,54,0.0,0.0,49,0.00,,---,0.01,VWS V14.00,2013-08-23 21:29:00,
2013-08-23 16:34:00,89.5,66.6,29.99,NE,54,0.0,0.0,47,0.00,,---,0.01,VWS V14.00,2013-08-23 21:34:00,
2013-08-23 16:39:00,89.7,67.4,29.99,NE,54,0.0,0.0,48,0.00,,---,0.01,VWS V14.00,2013-08-23 21:39:00,
2013-08-23 16:44:00,89.7,67.4,29.99,NE,54,0.0,0.0,48,0.00,,---,0.01,VWS V14.00,2013-08-23 21:44:00,
2013-08-23 16:49:00,89.5,66.6,29.99,NE,54,0.0,0.0,47,0.00,,---,0.01,VWS V14.00,2013-08-23 21:49:00,
2013-08-23 16:54:00,89.0,66.8,29.99,NE,54,0.0,0.0,48,0.00,,---,0.01,VWS V14.00,2013-08-23 21:54:00,
2013-08-23 16:59:00,89.3,67.1,29.99,NE,54,0.0,0.0,48,0.00,,---,0.01,VWS V14.00,2013-08-23 21:59:00,
2013-08-23 17:04:00,89.5,67.2,29.99,NE,54,0.0,0.0,48,0.00,,---,0.01,VWS V14.00,2013-08-23 22:04:00,
2013-08-23 17:09:00,89.0,65.6,30.00,NE,54,0.0,0.0,46,0.00,,---,0.01,VWS V14.00,2013-08-23 22:09:00,
2013-08-23 17:14:00,88.8,65.4,30.00,NE,54,0.0,0.0,46,0.00,,---,0.01,VWS V14.00,2013-08-23 22:14:00,
2013-08-23 17:19:00,88.8,66.0,30.00,NE,54,0.0,0.0,47,0.00,,---,0.01,VWS V14.00,2013-08-23 22:19:00,
2013-08-23 17:24:00,88.8,66.6,30.00,NE,54,0.0,0.0,48,0.00,,---,0.01,VWS V14.00,2013-08-23 22:24:00,
2013-08-23 17:29:00,89.0,66.8,30.00,NE,54,0.0,0.0,48,0.00,,---,0.01,VWS V14.00,2013-08-23 22:29:00,
2013-08-23 17:34:00,89.0,68.0,30.00,NE,54,0.0,0.0,50,0.00,,---,0.01,VWS V14.00,2013-08-23 22:34:00,
2013-08-23 17:39:00,89.3,68.2,29.99,NE,54,0.0,0.0,50,0.00,,---,0.01,VWS V14.00,2013-08-23 22:39:00,
2013-08-23 17:44:00,89.5,68.4,29.99,NE,54,0.0,0.0,50,0.00,,---,0.01,VWS V14.00,2013-08-23 22:44:00,
2013-08-23 17:49:00,89.9,67.0,29.99,NE,54,0.0,0.0,47,0.00,,---,0.01,VWS V14.00,2013-08-23 22:49:00,
2013-08-23 17:54:00,89.7,66.8,29.99,NE,54,0.0,0.0,47,0.00,,---,0.01,VWS V14.00,2013-08-23 22:54:00,
2013-08-23 17:59:00,89.5,66.6,29.99,NE,54,0.0,0.0,47,0.00,,---,0.01,VWS V14.00,2013-08-23 22:59:00,
2013-08-23 18:04:00,89.3,67.1,29.99,NE,54,0.0,0.0,48,0.00,,---,0.01,VWS V14.00,2013-08-23 23:04:00,
2013-08-23 18:09:00,89.0,66.8,29.99,NE,54,0.0,0.0,48,0.00,,---,0.01,VWS V14.00,2013-08-23 23:09:00,
2013-08-23 18:14:00,88.6,67.0,29.99,NE,54,0.0,0.0,49,0.00,,---,0.01,VWS V14.00,2013-08-23 23:14:00,
2013-08-23 18:19:00,88.4,68.6,29.98,NE,54,0.0,0.0,52,0.00,,---,0.01,VWS V14.00,2013-08-23 23:19:00,
2013-08-23 18:24:00,88.0,68.2,29.98,NE,54,0.0,0.0,52,0.00,,---,0.01,VWS V14.00,2013-08-23 23:24:00,
2013-08-23 18:29:00,87.8,69.6,29.98,NE,54,0.0,0.0,55,0.00,,---,0.01,VWS V14.00,2013-08-23 23:29:00,
2013-08-23 18:34:00,87.4,68.7,29.99,NE,54,0.0,0.0,54,0.00,,---,0.01,VWS V14.00,2013-08-23 23:34:00,
2013-08-23 18:39:00,87.4,69.8,29.98,NE,54,0.0,0.0,56,0.00,,---,0.01,VWS V14.00,2013-08-23 23:39:00,
2013-08-23 18:44:00,87.2,70.6,29.98,NE,54,0.0,0.0,58,0.00,,---,0.01,VWS V14.00,2013-08-23 23:44:00,
2013-08-23 18:49:00,86.7,71.2,29.98,NE,54,0.0,0.0,60,0.00,,---,0.01,VWS V14.00,2013-08-23 23:49:00,
2013-08-23 18:54:00,86.3,72.7,29.98,NE,54,0.0,0.0,64,0.00,,---,0.01,VWS V14.00,2013-08-23 23:54:00,
2013-08-23 18:59:00,85.7,72.1,29.99,NE,54,0.0,0.0,64,0.00,,---,0.01,VWS V14.00,2013-08-23 23:59:00,
2013-08-23 19:04:00,85.5,72.4,29.98,NE,54,0.0,0.0,65,0.00,,---,0.01,VWS V14.00,2013-08-24 00:04:00,
2013-08-23 19:09:00,85.3,72.7,29.98,NE,54,0.0,0.0,66,0.00,,---,0.01,VWS V14.00,2013-08-24 00:09:00,
2013-08-23 19:14:00,84.9,72.7,29.98,NE,54,0.0,0.0,67,0.00,,---,0.01,VWS V14.00,2013-08-24 00:14:00,
2013-08-23 19:19:00,84.5,72.8,29.98,NE,54,0.0,0.0,68,0.00,,---,0.01,VWS V14.00,2013-08-24 00:19:00,
2013-08-23 19:24:00,84.1,72.8,29.99,NE,54,0.0,0.0,69,0.00,,---,0.01,VWS V14.00,2013-08-24 00:24:00,
2013-08-23 19:29:00,83.8,72.6,29.99,NE,54,0.0,0.0,69,0.00,,---,0.01,VWS V14.00,2013-08-24 00:29:00,
2013-08-23 19:34:00,83.4,72.6,29.99,NE,54,0.0,0.0,70,0.00,,---,0.01,VWS V14.00,2013-08-24 00:34:00,
2013-08-23 19:39:00,83.0,72.2,30.00,NE,54,0.0,0.0,70,0.00,,---,0.01,VWS V14.00,2013-08-24 00:39:00,
2013-08-23 19:44:00,82.4,72.5,29.99,NE,54,0.0,0.0,72,0.00,,---,0.01,VWS V14.00,2013-08-24 00:44:00,
2013-08-23 19:49:00,82.0,72.1,29.99,NE,54,0.0,0.0,72,0.00,,---,0.01,VWS V14.00,2013-08-24 00:49:00,
2013-08-23 19:54:00,81.6,72.1,29.99,NE,54,0.0,0.0,73,0.00,,---,0.01,VWS V14.00,2013-08-24 00:54:00,
2013-08-23 19:59:00,81.2,72.5,29.99,NE,54,0.0,0.0,75,0.00,,---,0.01,VWS V14.00,2013-08-24 00:59:00,
2013-08-23 20:04:00,80.9,72.2,29.99,NE,54,0.0,0.0,75,0.00,,---,0.01,VWS V14.00,2013-08-24 01:04:00,
2013-08-23 20:09:00,80.7,72.0,29.99,NE,54,0.0,0.0,75,0.00,,---,0.01,VWS V14.00,2013-08-24 01:09:00,
2013-08-23 20:14:00,80.3,72.1,30.00,NE,54,0.0,0.0,76,0.00,,---,0.01,VWS V14.00,2013-08-24 01:14:00,
2013-08-23 20:19:00,80.1,72.2,30.00,NE,54,0.0,0.0,77,0.00,,---,0.01,VWS V14.00,2013-08-24 01:19:00,
2013-08-23 20:24:00,79.8,71.9,30.00,NE,54,0.0,0.0,77,0.00,,---,0.01,VWS V14.00,2013-08-24 01:24:00,
2013-08-23 20:29:00,79.6,72.1,30.00,NE,54,0.0,0.0,78,0.00,,---,0.01,VWS V14.00,2013-08-24 01:29:00,
2013-08-23 20:34:00,79.4,72.3,30.00,NE,54,0.0,0.0,79,0.00,,---,0.01,VWS V14.00,2013-08-24 01:34:00,
2013-08-23 20:39:00,79.2,72.1,30.00,NE,54,0.0,0.0,79,0.00,,---,0.01,VWS V14.00,2013-08-24 01:39:00,
2013-08-23 20:44:00,79.0,72.3,30.00,NE,54,0.0,0.0,80,0.00,,---,0.01,VWS V14.00,2013-08-24 01:44:00,
2013-08-23 20:49:00,79.0,72.3,30.01,NE,53,0.0,0.0,80,0.00,,---,0.01,VWS V14.00,2013-08-24 01:49:00,
2013-08-23 20:54:00,79.4,72.3,30.01,NE,54,0.0,0.0,79,0.00,,---,0.01,VWS V14.00,2013-08-24 01:54:00,
2013-08-23 20:59:00,79.4,72.3,30.01,NE,54,0.0,0.0,79,0.00,,---,0.01,VWS V14.00,2013-08-24 01:59:00,
2013-08-23 21:04:00,79.4,72.3,30.00,NE,54,0.0,0.0,79,0.00,,---,0.01,VWS V14.00,2013-08-24 02:04:00,
2013-08-23 21:08:00,78.6,71.9,30.01,NE,54,0.0,0.0,80,0.00,,---,0.01,VWS V14.00,2013-08-24 02:08:00,
2013-08-23 21:13:00,78.3,72.0,30.01,NE,54,0.0,0.0,81,0.00,,---,0.01,VWS V14.00,2013-08-24 02:13:00,
2013-08-23 21:18:00,77.9,71.6,30.01,NE,54,0.0,0.0,81,0.00,,---,0.01,VWS V14.00,2013-08-24 02:18:00,
2013-08-23 21:23:00,77.7,71.8,30.01,NE,54,0.0,0.0,82,0.00,,---,0.01,VWS V14.00,2013-08-24 02:23:00,
2013-08-23 21:28:00,77.7,71.8,30.01,NE,54,0.0,0.0,82,0.00,,---,0.01,VWS V14.00,2013-08-24 02:28:00,
2013-08-23 21:33:00,77.4,71.5,30.02,NE,54,0.0,0.0,82,0.00,,---,0.01,VWS V14.00,2013-08-24 02:33:00,
2013-08-23 21:38:00,77.0,71.4,30.01,NE,54,0.0,0.0,83,0.00,,---,0.01,VWS V14.00,2013-08-24 02:38:00,
2013-08-23 21:43:00,76.8,71.2,30.02,NE,54,0.0,0.0,83,0.00,,---,0.01,VWS V14.00,2013-08-24 02:43:00,
2013-08-23 21:48:00,76.8,71.2,30.02,NE,54,0.0,0.0,83,0.00,,---,0.01,VWS V14.00,2013-08-24 02:48:00,
2013-08-23 21:53:00,76.7,71.2,30.02,NE,54,0.0,1.0,83,0.00,,---,0.01,VWS V14.00,2013-08-24 02:53:00,
2013-08-23 21:58:00,76.5,71.3,30.02,NE,54,0.0,0.0,84,0.00,,---,0.01,VWS V14.00,2013-08-24 02:58:00,
2013-08-23 22:03:00,76.3,71.1,30.02,NE,54,0.0,0.0,84,0.00,,---,0.01,VWS V14.00,2013-08-24 03:03:00,
2013-08-23 22:08:00,76.3,71.1,30.02,NE,54,0.0,0.0,84,0.00,,---,0.01,VWS V14.00,2013-08-24 03:08:00,
2013-08-23 22:13:00,76.1,70.9,30.02,NE,54,0.0,0.0,84,0.00,,---,0.01,VWS V14.00,2013-08-24 03:13:00,
2013-08-23 22:18:00,75.8,70.6,30.02,NE,54,0.0,0.0,84,0.00,,---,0.01,VWS V14.00,2013-08-24 03:18:00,
2013-08-23 22:23:00,75.6,70.8,30.02,NE,54,0.0,0.0,85,0.00,,---,0.01,VWS V14.00,2013-08-24 03:23:00,
2013-08-23 22:28:00,75.4,70.9,30.02,NE,54,0.0,0.0,86,0.00,,---,0.01,VWS V14.00,2013-08-24 03:28:00,
2013-08-23 22:33:00,75.4,70.9,30.03,NE,53,0.0,0.0,86,0.00,,---,0.01,VWS V14.00,2013-08-24 03:33:00,
2013-08-23 22:38:00,75.4,70.9,30.03,NE,54,0.0,0.0,86,0.00,,---,0.01,VWS V14.00,2013-08-24 03:38:00,
2013-08-23 22:43:00,75.3,70.8,30.03,NE,54,0.0,0.0,86,0.00,,---,0.01,VWS V14.00,2013-08-24 03:43:00,
2013-08-23 22:48:00,75.3,70.8,30.04,NE,54,0.0,0.0,86,0.00,,---,0.01,VWS V14.00,2013-08-24 03:48:00,
2013-08-23 22:53:00,75.1,71.0,30.04,NE,54,0.0,0.0,87,0.00,,---,0.01,VWS V14.00,2013-08-24 03:53:00,
2013-08-23 22:58:00,74.9,70.8,30.03,NE,54,0.0,0.0,87,0.00,,---,0.01,VWS V14.00,2013-08-24 03:58:00,
2013-08-23 23:01:00,74.7,70.6,30.03,NE,54,0.0,0.0,87,0.00,,---,0.01,VWS V14.00,2013-08-24 04:01:00,
2013-08-23 23:06:00,74.6,70.8,30.02,NE,54,0.0,0.0,88,0.00,,---,0.01,VWS V14.00,2013-08-24 04:06:00,
2013-08-23 23:11:00,74.6,70.8,30.03,NE,54,0.0,0.0,88,0.00,,---,0.01,VWS V14.00,2013-08-24 04:11:00,
2013-08-23 23:16:00,74.4,70.6,30.03,NE,54,0.0,0.0,88,0.00,,---,0.01,VWS V14.00,2013-08-24 04:16:00,
2013-08-23 23:21:00,74.4,70.6,30.03,NE,54,0.0,0.0,88,0.00,,---,0.01,VWS V14.00,2013-08-24 04:21:00,
2013-08-23 23:26:00,74.2,70.4,30.03,NE,54,0.0,0.0,88,0.00,,---,0.01,VWS V14.00,2013-08-24 04:26:00,
2013-08-23 23:31:00,74.0,70.2,30.03,NE,54,0.0,0.0,88,0.00,,---,0.01,VWS V14.00,2013-08-24 04:31:00,
2013-08-23 23:36:00,74.0,70.2,30.03,NE,54,0.0,0.0,88,0.00,,---,0.01,VWS V14.00,2013-08-24 04:36:00,
2013-08-23 23:41:00,73.9,70.1,30.03,NE,54,0.0,0.0,88,0.00,,---,0.01,VWS V14.00,2013-08-24 04:41:00,
2013-08-23 23:46:00,73.7,70.3,30.03,NE,54,0.0,0.0,89,0.00,,---,0.01,VWS V14.00,2013-08-24 04:46:00,
2013-08-23 23:51:00,73.7,70.3,30.03,NE,54,0.0,0.0,89,0.00,,---,0.01,VWS V14.00,2013-08-24 04:51:00,
2013-08-23 23:56:00,73.5,70.1,30.03,NE,54,0.0,0.0,89,0.00,,---,0.01,VWS V14.00,2013-08-24 04:56:00,